Weather History for KALO - April, 2013

Change the Weather History Date:

Wednesday, April 17, 2013

  Actual Average Record
Temperature  
Mean Temperature 42 °F 50 °F  
Max Temperature 45 °F 61 °F 85 °F (1985)
Min Temperature 39 °F 38 °F 14 °F (1921)
Degree Days  
Heating Degree Days 23 16  
Month to date heating degree days 402 323  
Since 1 July heating degree days 6795 6648  
Cooling Degree Days 0 0  
Month to date cooling degree days 0 0  
Year to date cooling degree days 0 0  
Moisture  
Dew Point 38 °F    
Average Humidity 84    
Maximum Humidity 100    
Minimum Humidity 67    
Precipitation  
Precipitation 1.62 in 0.13 in 1.62 in (2013)
Month to date precipitation 5.18 1.90  
Year to date precipitation 10.83 5.78  
Snow  
Snow 0.00 in 0.00 in 3.00 in (1960)
Month to date snowfall 0.1 1.4  
Since 1 July snowfall 48.4 34.9  
Snow Depth 0.00 in    
Sea Level Pressure  
Sea Level Pressure 29.99 in    
Wind  
Wind Speed 14 mph (ENE)    
Max Wind Speed 39 mph    
Max Gust Speed 47 mph    
Visibility 7 miles    
Events Rain , Thunderstorm    
T = Trace of Precipitation, MM = Missing Value Source: NWS Daily Summary

Daily Weather History Graph

Daily Weather History Graph

Search for Another Location

Airport or City:

Trip Planner

Search our weather history database for the weather conditions in past years. The results will help you decide how hot, cold, wet, or windy it might be!

Date:

Astronomy

Apr. 17, 2013 Rise Set
Actual Time 6:24 AM CDT 7:54 PM CDT
Civil Twilight 5:55 AM CDT 8:23 PM CDT
Nautical Twilight 5:19 AM CDT 8:59 PM CDT
Astronomical Twilight 4:42 AM CDT 9:37 PM CDT
Moon 11:36 AM CDT (4/17) 1:34 AM CDT (4/17)
Length of Visible Light 14h 28m
Length of Day
13h 29m
Waxing Crescent, 42% of the Moon is Illuminated
Apr 17
Waxing Crescent
Apr 18
First Quarter
Apr 25
Full
May 2
Last Quarter
May 9
New

Hourly Weather History & Observations

Time (CDT) Temp. Windchill Dew Point Humidity Pressure Visibility Wind Dir Wind Speed Gust Speed Precip Events Conditions
12:54 AM 43.0 °F 37.2 °F 33.1 °F 68% 30.25 in 10.0 mi NE 10.4 mph - N/A   Overcast
1:54 AM 43.0 °F 38.2 °F 33.1 °F 68% 30.24 in 10.0 mi ENE 8.1 mph - N/A   Overcast
2:54 AM 43.0 °F 37.2 °F 33.1 °F 68% 30.23 in 10.0 mi ENE 10.4 mph - N/A   Overcast
3:54 AM 43.0 °F 35.7 °F 32.0 °F 65% 30.19 in 10.0 mi East 15.0 mph - N/A   Overcast
4:54 AM 43.0 °F 36.4 °F 33.1 °F 68% 30.19 in 10.0 mi East 12.7 mph - N/A   Overcast
5:54 AM 43.0 °F 37.2 °F 36.0 °F 76% 30.18 in 10.0 mi East 10.4 mph - 0.00 in Rain Light Rain
6:23 AM 42.8 °F 34.8 °F 37.4 °F 81% 30.16 in 4.0 mi ESE 17.3 mph - 0.04 in Rain , Thunderstorm Heavy Rain
6:38 AM 41.0 °F 32.5 °F 37.4 °F 87% 30.14 in 4.0 mi East 17.3 mph - 0.10 in Rain Rain
6:54 AM 41.0 °F 33.5 °F 37.9 °F 89% 30.15 in 6.0 mi East 13.8 mph - 0.14 in Rain Light Rain
7:54 AM 41.0 °F 33.9 °F 37.9 °F 89% 30.14 in 10.0 mi East 12.7 mph - 0.06 in   Overcast
8:54 AM 41.0 °F 34.3 °F 35.6 °F 81% 30.12 in 10.0 mi East 11.5 mph 20.7 mph N/A   Partly Cloudy
9:34 AM 39.2 °F 31.6 °F 35.6 °F 87% 30.11 in 7.0 mi ENE 12.7 mph - 0.01 in Rain , Thunderstorm Rain
9:49 AM 39.2 °F 31.6 °F 35.6 °F 87% 30.08 in 4.0 mi ENE 12.7 mph - 0.04 in Rain Rain
9:54 AM 39.0 °F 31.4 °F 37.0 °F 93% 30.11 in 4.0 mi ENE 12.7 mph - 0.06 in Rain Rain
10:24 AM 39.2 °F 32.0 °F 37.4 °F 93% 30.13 in 3.0 mi East 11.5 mph - 0.13 in Rain , Thunderstorm Rain
10:39 AM 39.2 °F 32.5 °F 37.4 °F 93% 30.13 in 3.0 mi East 10.4 mph - 0.21 in Rain Heavy Rain
10:41 AM 39.2 °F 33.0 °F 37.4 °F 93% 30.12 in 2.5 mi East 9.2 mph - 0.22 in Rain , Thunderstorm Heavy Rain
10:54 AM 39.0 °F 34.0 °F 37.0 °F 93% 30.15 in 3.0 mi East 6.9 mph - 0.31 in Rain , Thunderstorm Rain
11:10 AM 39.2 °F 33.0 °F 37.4 °F 93% 30.13 in 2.5 mi ENE 9.2 mph - 0.08 in Rain , Thunderstorm Heavy Thunderstorms and Rain
11:14 AM 39.2 °F 32.5 °F 37.4 °F 93% 30.13 in 2.5 mi NE 10.4 mph - 0.11 in Rain Heavy Rain
11:26 AM 39.2 °F 33.6 °F 37.4 °F 93% 30.14 in 2.5 mi North 8.1 mph - 0.17 in Rain Rain
11:29 AM 39.2 °F 33.0 °F 37.4 °F 93% 30.13 in 3.0 mi NE 9.2 mph - 0.18 in Rain Rain
11:46 AM 39.2 °F 34.2 °F 37.4 °F 93% 30.14 in 4.0 mi ENE 6.9 mph - 0.23 in Rain , Thunderstorm Thunderstorms and Rain
11:54 AM 39.0 °F 33.4 °F 37.9 °F 96% 30.16 in 5.0 mi ENE 8.1 mph - 0.26 in Rain , Thunderstorm Light Thunderstorms and Rain
12:09 PM 39.2 °F 30.5 °F 37.4 °F 93% 30.10 in 4.0 mi ENE 16.1 mph - 0.04 in Rain Rain
12:21 PM 39.2 °F 28.0 °F 37.4 °F 93% 30.00 in 4.0 mi East 26.5 mph 32.2 mph 0.06 in Rain Light Rain
12:31 PM 39.2 °F 26.3 °F 37.4 °F 93% 29.88 in 3.0 mi East 36.8 mph 47.2 mph 0.06 in Rain , Thunderstorm Thunderstorms and Rain
12:46 PM 39.2 °F 27.8 °F 37.4 °F 93% 29.89 in 10.0 mi East 27.6 mph 40.3 mph 0.09 in Rain Light Rain
12:54 PM 39.9 °F 28.2 °F 37.9 °F 93% 29.86 in 10.0 mi East 31.1 mph 42.6 mph 0.09 in   Mostly Cloudy
1:41 PM 41.0 °F 31.4 °F 37.4 °F 87% 29.88 in 10.0 mi East 21.9 mph 29.9 mph N/A   Mostly Cloudy
1:54 PM 41.0 °F 31.9 °F 39.0 °F 93% 29.89 in 10.0 mi ENE 19.6 mph 26.5 mph N/A   Mostly Cloudy
2:54 PM 42.1 °F 36.6 °F 39.0 °F 89% 30.00 in 10.0 mi SE 9.2 mph - 0.01 in   Overcast
3:54 PM 42.1 °F 35.2 °F 39.9 °F 92% 29.91 in 10.0 mi NE 12.7 mph - 0.00 in   Overcast
4:54 PM 42.1 °F 32.8 °F 39.9 °F 92% 29.84 in 10.0 mi NE 21.9 mph 27.6 mph 0.00 in   Overcast
5:54 PM 42.1 °F 34.5 °F 39.9 °F 92% 29.82 in 7.0 mi ENE 15.0 mph 24.2 mph 0.00 in   Overcast
6:54 PM 42.1 °F 36.6 °F 41.0 °F 96% 29.84 in 5.0 mi ENE 9.2 mph - 0.03 in Rain Light Rain
7:54 PM 43.0 °F 37.2 °F 41.0 °F 93% 29.83 in 5.0 mi NE 10.4 mph - 0.08 in Rain Light Rain
8:20 PM 42.8 °F 36.2 °F 41.0 °F 93% 29.79 in 5.0 mi ENE 12.7 mph - 0.07 in Rain Rain
8:32 PM 42.8 °F 37.5 °F 41.0 °F 93% 29.81 in 4.0 mi ENE 9.2 mph - 0.13 in Rain Rain
8:41 PM 42.8 °F 35.8 °F 41.0 °F 93% 29.92 in 2.5 mi West 13.8 mph 33.4 mph 0.17 in Rain Heavy Rain
8:54 PM 43.0 °F 37.7 °F 42.1 °F 97% 29.91 in 3.0 mi NW 9.2 mph - 0.30 in Rain Rain
8:57 PM 42.8 °F 36.6 °F 41.0 °F 93% 29.89 in 3.0 mi NW 11.5 mph - 0.02 in Rain Rain
9:54 PM 42.1 °F 36.6 °F 41.0 °F 96% 29.86 in 7.0 mi East 9.2 mph - 0.16 in Rain Light Rain
10:51 PM 42.8 °F 32.9 °F 41.0 °F 93% 29.66 in 8.0 mi East 26.5 mph 32.2 mph 0.12 in Rain , Thunderstorm Light Thunderstorms and Rain
10:54 PM 42.1 °F 31.9 °F 41.0 °F 96% 29.66 in 9.0 mi East 26.5 mph 32.2 mph 0.12 in Rain , Thunderstorm Light Thunderstorms and Rain
11:06 PM 42.8 °F 31.9 °F 41.0 °F 93% 29.56 in 10.0 mi East 32.2 mph 39.1 mph 0.00 in Rain Light Rain
11:18 PM 42.8 °F 34.5 °F 42.8 °F 100% 29.61 in 10.0 mi ESE 18.4 mph 36.8 mph 0.00 in   Mostly Cloudy
11:36 PM 44.6 °F 39.7 °F 42.8 °F 93% 29.65 in 10.0 mi NNE 9.2 mph - 0.00 in   Mostly Cloudy
11:54 PM 44.1 °F 37.7 °F 42.1 °F 93% 29.68 in 10.0 mi North 12.7 mph - 0.00 in   Overcast